Regional Weather Roundup
Issued by NWS

Home | Current Version | Previous Version | Graphics & Text | Print | Product List | Glossary On
Versions: 1 2 3 4 5 6 7 8 9 10 11 12 13 14 15 16 17 18 19 20 21 22 23 24 25 26 27 28 29 30 31 32 33 34 35 36 37 38 39 40 41 42 43 44 45 46 47 48 49 50
452
ASUS43 KMKX 281400
RWRWI

WISCONSIN REGIONAL WEATHER ROUNDUP
NATIONAL WEATHER SERVICE MILWAUKEE/SULLIVAN WI
900 AM CDT THU JUL 28 2016

NOTE: "FAIR" INDICATES FEW OR NO CLOUDS BELOW 12,000 FEET WITH NO
SIGNIFICANT WEATHER AND/OR OBSTRUCTIONS TO VISIBILITY.

WIZ001-002-006>008-014>016-023>028-281500-
NORTHWEST WISCONSIN

CITY           SKY/WX    TMP DP  RH WIND       PRES   REMARKS
SUPERIOR ARPT  SUNNY     65  58  77 NE7       30.07S
ASHLAND        SUNNY     68  59  73 NE8       30.07R
HAYWARD        MOSUNNY   66  57  72 NE12G18   30.06R
SIREN          NOT AVBL
CUMBERLAND     CLOUDY    64  59  82 NE12      30.03S
RICE LAKE      CLOUDY    65  61  84 NE10      30.03S
CHETEK         CLOUDY    67  64  90 NE8       30.02R
LADYSMITH      MOSUNNY   68  62  80 NE10      30.05R
EAU CLAIRE     NOT AVBL
MENOMONIE      CLOUDY    66  66  99 N8        29.99S FOG
NEW RICHMOND   CLOUDY    67  63  87 NE8       30.02S
OSCEOLA        CLOUDY    65  65 100 N8        30.05S
$$

WIZ003>005-009-010-017-018-281500-
NORTH CENTRAL WISCONSIN

CITY           SKY/WX    TMP DP  RH WIND       PRES   REMARKS
MANITOWISH WTR SUNNY     63  58  83 NE6       30.06S
ARBOR VITAE    SUNNY     64  56  77 NE8       30.05S
WOODRUFF       SUNNY     64  56  77 NE8       30.05S
RHINELANDER    CLOUDY    63  56  78 NE8       30.05S
EAGLE RIVER    SUNNY     63  55  76 NE7       30.05S
LAND O LAKES   SUNNY     64  56  77 NE3       30.07S
PHILLIPS       PTSUNNY   63  57  80 NE10      30.04R
TOMAHAWK       CLOUDY    61  58  89 NE6       30.04S
MEDFORD        CLOUDY    60  60 100 E8        30.02R
MERRILL        CLOUDY    60  60 100 E7        30.03S FOG
$$

WIZ029-030-035-036-043>047-281500-
CENTRAL WISCONSIN

CITY           SKY/WX    TMP DP  RH WIND       PRES   REMARKS
WAUSAU         LGT RAIN  60  59  96 E9        30.01R FOG
MOSINEE        NOT AVBL
MARSHFIELD     CLOUDY    62  59  90 E13       29.99S
STEVENS POINT  CLOUDY    60  59  99 NE10      30.01R
WAUPACA        CLOUDY    66  65  97 NE6       30.00S
WAUTOMA        CLOUDY    66  62  87 NE14G20   29.98S
WISC RAPIDS    CLOUDY    64  60  87 E12       29.99S
CAMP DOUGLAS   NOT AVBL
$$

WIZ011>013-019>022-031-037>040-048>050-281500-
NORTHEAST WISCONSIN

CITY           SKY/WX    TMP DP  RH WIND       PRES   REMARKS
ANTIGO         CLOUDY    59  59  99 CALM      30.04R
SHAWANO        DRIZZLE   63  60  91 NE10      30.02S
OCONTO         CLOUDY   N/A N/A N/A N6        30.01S
STURGEON BAY   CLOUDY    64  62  93 NE6       30.02S
GREEN BAY      CLOUDY    65  64  97 NE9       30.00R
MANITOWOC      NOT AVBL
APPLETON       CLOUDY    64  61  88 NE12G17   29.99R
CLINTONVILLE   CLOUDY    61  59  94 E8        30.01R
OSHKOSH        LGT RAIN  66  61  84 NE9       29.97F
$$

WIZ032>034-041-042-053>061-281500-
SOUTHWEST WISCONSIN

CITY           SKY/WX    TMP DP  RH WIND       PRES   REMARKS
LA CROSSE      CLOUDY    70  66  87 N6        29.93R
SPARTA         CLOUDY    68  67  97 E9        29.93F
VIROQUA        CLOUDY    69  69 100 NE3       29.94R
BOSCOBEL       CLOUDY    72  69  90 NE7       29.91S
PRAIRIE DU CHI CLOUDY    72  68  87 CALM      29.90S
PLATTEVILLE    SUNNY     75  71  85 NE3       29.92S
$$

WIZ056-057-062-063-064-067-068-281500-
SOUTH CENTRAL WISCONSIN

CITY           SKY/WX    TMP DP  RH WIND       PRES   REMARKS
REEDSBURG      CLOUDY    70  67  90 E8        29.93S
BARABOO/DELLS  CLOUDY    69  64  86 E10G17    29.94S
LONE ROCK      NOT AVBL
MINERAL POINT  MOSUNNY   73  70  88 E5        29.93R
MADISON        CLOUDY    71  66  84 E10       29.93R
MIDDLETON      CLOUDY    72  69  90 E9        29.94R
WATERTOWN      CLOUDY    69  69 100 E8        29.95R
MONROE         PTSUNNY   72  68  88 E7        29.93S FOG
JANESVILLE     MOSUNNY   75  72  88 E6        29.92S
$$

WIZ051-052-058>065-066-070>072-281500-
SOUTHEAST WISCONSIN

CITY           SKY/WX    TMP DP  RH WIND       PRES   REMARKS
MILWAUKEE      FOG       71  68  90 NE6       29.94S VSB 1/2
WAUKESHA       NOT AVBL
MILWAUKEE/TIMM CLOUDY    72  66  83 NE6       29.95S
RACINE         PTSUNNY   71  67  87 N6        29.95S
BURLINGTON     SUNNY     73  67  80 E8        29.94S
KENOSHA        PTSUNNY   76  70  82 E8        29.93F
FOND DU LAC    CLOUDY    68  62  81 E9        29.97S
SHEBOYGAN      CLOUDY    67  61  81 NE16      29.97S
WEST BEND      CLOUDY    68  63  83 NE10      29.97R
JUNEAU         CLOUDY    67  65  93 NE5       29.97R
$$

LSZ147-162-281500-
LAKE SUPERIOR

STATION/POSITION TIME  TEMP    WIND        PRES    WAVE
                       AIR SEA DIR/SP/G            HT/PER
                 (UTC) (F)     (DEG/KT/KT) (MB)    (FT/S)
W MID LAKE BUOY  1250   62 60   50/ 14/ 16 1017.7S   1/ 2
DEVILS ISLAND    1300   63      50/ 16/ 17 1018.0F
PORT WING        1240   63      40/  8/  8 1018.3R
SAXON HARBOR     1340   66      40/  7/ 10 1017.6R
$$

LMZ867-665-643>646-281500-
LAKE MICHIGAN

STATION/POSITION TIME  TEMP    WIND        PRES    WAVE
                       AIR SEA DIR/SP/G            HT/PER
                 (UTC) (F)     (DEG/KT/KT) (MB)    (FT/S)
CHAMBERS ISLAND  1340   66      40/  9/ 12 1016.3S
N MID LAKE BUOY  1250   65 69   50/ 10/ 12 1015.6R   2/ 4
NORTHPORT PIER   1300   65      40/  7/  8 1016.3S
SISTER BAY       1306   64        CALM       N/A
ALGOMA LAKESHORE 1313           50/ 13/ 18   N/A
KEWAUNEE LAKESHO 1300   63      40/  9/ 11 1015.1S
SHEBOYGAN LAKESH 1300   59     350/ 14/ 15 1014.7R
PORT WASHINGTON  1340   69      20/  7/ 13 1014.9R
ATWATER BUOY     1300   63 63  360/ 10/ 14 1015.2R
MILWAUKEE LAKESH 1310   67     360/  7/  8   N/A
S MID LAKE BUOY  1250   74 74   90/  6/  8 1012.6R   1
KENOSHA   LAKESH 1300   68      10/  7/  7 1013.5R
$$

TC  - TEMPERATURE IN CELSIUS
VSB - VISIBILITY IN STATUTE MILES
WCI - WIND CHILL INDEX
HX  - HEAT INDEX





USA.gov is the U.S. government's official web portal to all federal, state and local government web resources and services.